EW5684 Weather Reports


time (UTC)temp
F
wind
direction
speed
knots
gust
knots
rain 1hr
in
rain 24hr
in
rain mn
in
humidity
%
barometer
mb
20260508013605 57 137 0.0 0.0 0.00 0.00 0.00 55 1014.8
20260508013104 57 137 0.0 0.0 0.00 0.00 0.00 55 1014.8
20260508012605 57 137 0.0 0.0 0.00 0.00 0.00 55 1014.9
20260508012104 58 137 0.0 0.0 0.00 0.00 0.00 55 1014.8
20260508011604 58 137 0.0 0.0 0.00 0.00 0.00 56 1014.9
20260508011104 58 137 0.0 1.7 0.00 0.00 0.00 56 1015.0
20260508010605 58 137 0.0 2.6 0.00 0.00 0.00 56 1015.1
20260508010105 58 134 1.7 2.6 0.00 0.00 0.00 56 1015.1
20260508005830 58 134 0.0 1.7 0.00 0.00 0.00 56 1015.0
20260508005104 58 134 0.0 1.7 0.00 0.00 0.00 56 1015.0
20260508004824 58 134 0.0 0.9 0.00 0.00 0.00 56 1014.9
20260508004104 58 134 0.0 0.0 0.00 0.00 0.00 55 1014.9
20260508003605 59 134 0.0 0.0 0.00 0.00 0.00 56 1014.9
20260508003105 59 134 0.0 0.0 0.00 0.00 0.00 56 1015.0
20260508003055 58 134 0.0 1.7 0.00 0.00 0.00 55 1015.0
20260508002549 59 134 0.0 1.7 0.00 0.00 0.00 55 1015.1
20260508001826 59 134 0.0 2.6 0.00 0.00 0.00 55 1015.1
20260508001104 59 134 0.9 2.6 0.00 0.00 0.00 55 1015.0
20260508000605 59 34 0.0 0.9 0.00 0.00 0.00 55 1015.0
20260508000544 59 32 0.0 0.9 0.00 0.00 0.00 55 1015.0
20260507235605 59 32 0.0 0.9 0.00 0.00 0.00 55 1015.0
20260507235105 60 32 0.9 0.9 0.00 0.00 0.00 54 1015.0
20260507234605 60 32 0.0 0.0 0.00 0.00 0.00 54 1015.1
20260507234104 60 32 0.0 2.6 0.00 0.00 0.00 54 1015.1
20260507233605 60 32 1.7 3.5 0.00 0.00 0.00 54 1015.0
20260507233104 60 35 1.7 3.5 0.00 0.00 0.00 54 1015.0
20260507232604 60 41 1.7 2.6 0.00 0.00 0.00 54 1015.1
20260507232104 60 41 0.0 0.0 0.00 0.00 0.00 54 1015.2
20260507231824 60 41 0.0 0.0 0.00 0.00 0.00 54 1015.1
20260507231331 60 41 0.0 0.0 0.00 0.00 0.00 54 1015.1
20260507230604 60 41 0.0 0.0 0.00 0.00 0.00 53 1015.1
20260507230105 60 41 0.0 0.0 0.00 0.00 0.00 53 1015.2
20260507225605 60 41 0.0 0.0 0.00 0.00 0.00 53 1015.2
20260507225104 60 41 0.0 0.9 0.00 0.00 0.00 53 1015.1
20260507224605 60 41 0.0 0.9 0.00 0.00 0.00 53 1015.1
20260507224104 60 41 0.0 1.7 0.00 0.00 0.00 53 1015.1
20260507223604 60 41 0.0 3.5 0.00 0.00 0.00 53 1015.0
20260507223104 60 41 1.7 3.5 0.00 0.00 0.00 53 1015.0
20260507222604 60 44 0.9 3.5 0.00 0.00 0.00 53 1014.9
20260507222105 60 44 0.0 3.5 0.00 0.00 0.00 53 1014.9
20260507221828 60 345 1.7 2.6 0.00 0.00 0.00 53 1014.9
20260507221104 60 341 0.9 2.6 0.00 0.00 0.00 53 1014.9
20260507220605 60 341 1.7 2.6 0.00 0.00 0.00 53 1014.9
20260507220105 60 338 1.7 2.6 0.00 0.00 0.00 53 1014.9
20260507215828 60 334 1.7 2.6 0.00 0.00 0.00 53 1014.9
20260507215105 60 336 1.7 2.6 0.00 0.00 0.00 54 1015.0
20260507214605 60 336 1.7 2.6 0.00 0.00 0.00 53 1014.9
20260507214105 60 327 0.0 0.9 0.00 0.00 0.00 53 1014.9
20260507213604 60 327 0.0 0.9 0.00 0.00 0.00 54 1014.9
20260507213321 60 327 0.0 1.7 0.00 0.00 0.00 54 1014.9
20260507212604 60 327 0.9 3.5 0.00 0.00 0.00 54 1014.8
20260507212105 60 327 2.6 3.5 0.00 0.00 0.00 55 1014.7
20260507211830 60 327 1.7 3.5 0.00 0.00 0.00 55 1014.7
20260507211105 60 175 0.0 1.7 0.00 0.00 0.00 55 1014.7
20260507210604 60 175 1.7 1.7 0.00 0.00 0.00 55 1014.7
20260507210104 61 175 0.0 0.0 0.00 0.00 0.00 54 1014.7
20260507205605 61 175 0.0 0.0 0.00 0.00 0.00 54 1014.7
20260507205105 61 175 0.0 0.9 0.00 0.00 0.00 54 1014.7
20260507204604 61 175 0.0 0.9 0.00 0.00 0.00 54 1014.7
20260507204104 61 175 0.0 0.9 0.00 0.00 0.00 54 1014.7
20260507203604 61 173 0.0 0.0 0.00 0.00 0.00 54 1014.7
20260507203104 61 175 0.0 0.9 0.00 0.00 0.00 54 1014.6
20260507202605 61 175 0.0 1.7 0.00 0.00 0.00 54 1014.6
20260507202104 61 175 0.9 1.7 0.00 0.00 0.00 54 1014.5
20260507201604 62 175 0.9 1.7 0.00 0.00 0.00 54 1014.4
20260507201105 62 175 0.9 1.7 0.00 0.00 0.00 53 1014.3
20260507200604 62 175 0.0 0.0 0.00 0.00 0.00 53 1014.3
20260507200105 62 175 0.0 3.5 0.00 0.00 0.00 53 1014.1
20260507195831 62 0 0.0 3.5 0.00 0.00 0.00 53 1014.2
20260507195331 62 0 1.7 3.5 0.00 0.00 0.00 53 1014.1
20260507194605 62 0 2.6 3.5 0.00 0.00 0.00 53 1014.0
20260507194104 62 0 0.0 2.6 0.00 0.00 0.00 52 1013.9
20260507193605 62 0 1.7 4.3 0.00 0.00 0.00 51 1013.9
20260507193105 63 0 1.7 4.3 0.00 0.00 0.00 50 1013.9
20260507192604 64 0 2.6 3.5 0.00 0.00 0.00 47 1013.8
20260507192105 64 0 0.9 1.7 0.00 0.00 0.00 46 1013.6
20260507191605 64 0 0.0 2.6 0.00 0.00 0.00 47 1013.5
20260507191104 64 0 0.9 4.3 0.00 0.00 0.00 47 1013.6
20260507190605 64 0 2.6 4.3 0.00 0.00 0.00 47 1013.6
20260507190326 65 0 0.0 1.7 0.00 0.00 0.00 46 1013.5
20260507185604 65 0 0.0 1.7 0.00 0.00 0.00 45 1013.4
20260507185329 65 0 0.9 2.6 0.00 0.00 0.00 45 1013.2
20260507184604 65 0 1.7 2.6 0.00 0.00 0.00 44 1013.1
20260507184103 65 0 1.7 2.6 0.00 0.00 0.00 44 1013.1
20260507183604 65 0 0.9 1.7 0.00 0.00 0.00 45 1013.2
20260507183105 65 0 0.9 2.6 0.00 0.00 0.00 46 1013.1
20260507182604 65 0 1.7 2.6 0.00 0.00 0.00 45 1013.2
20260507182105 65 0 2.6 3.5 0.00 0.00 0.00 46 1013.1
20260507181604 65 0 2.6 3.5 0.00 0.00 0.00 46 1013.0
20260507181326 65 0 1.7 4.3 0.00 0.00 0.00 46 1013.0
20260507180604 65 0 3.5 4.3 0.00 0.00 0.00 46 1012.9
20260507180105 65 0 2.6 4.3 0.00 0.00 0.00 46 1012.9
20260507175604 65 0 1.7 4.3 0.00 0.00 0.00 46 1012.9
20260507175104 66 0 3.5 5.2 0.00 0.00 0.00 45 1012.9
20260507174605 66 0 4.3 7.8 0.00 0.00 0.00 45 1012.9
20260507174105 67 0 5.2 7.8 0.00 0.00 0.00 43 1012.9
20260507173605 67 0 5.2 6.1 0.00 0.00 0.00 42 1012.9
20260507173105 69 0 4.3 5.2 0.00 0.00 0.00 41 1012.8
20260507172832 69 0 1.7 3.5 0.00 0.00 0.00 37 1012.8
20260507172104 70 0 1.7 2.6 0.00 0.00 0.00 37 1012.7
20260507172041 70 0 1.7 2.6 0.00 0.00 0.00 36 1012.7
20260507171104 70 0 0.9 3.5 0.00 0.00 0.00 35 1012.7
20260507170823 69 0 0.9 3.5 0.00 0.00 0.00 35 1012.7
20260507170105 70 0 1.7 3.5 0.00 0.00 0.00 36 1012.6
20260507165605 70 0 0.9 3.5 0.00 0.00 0.00 32 1012.7
20260507165104 70 0 2.6 3.5 0.00 0.00 0.00 32 1012.7
20260507164605 71 0 0.9 4.3 0.00 0.00 0.00 31 1012.6
20260507164105 72 149 3.5 4.3 0.00 0.00 0.00 31 1012.6
20260507163604 71 172 0.0 3.5 0.00 0.00 0.00 32 1012.6
20260507163105 71 166 1.7 3.5 0.00 0.00 0.00 32 1012.7
20260507162604 71 238 2.6 4.3 0.00 0.00 0.00 34 1012.6
20260507162104 71 200 1.7 4.3 0.00 0.00 0.00 34 1012.6
20260507161604 71 237 2.6 4.3 0.00 0.00 0.00 34 1012.6
20260507161105 72 190 1.7 3.5 0.00 0.00 0.00 32 1012.7
20260507160604 72 133 0.0 5.2 0.00 0.00 0.00 31 1012.6
20260507160105 72 165 1.7 5.2 0.00 0.00 0.00 32 1012.6
20260507155830 71 173 1.7 4.3 0.00 0.00 0.00 33 1012.6
20260507155104 71 193 1.7 4.3 0.00 0.00 0.00 32 1012.5
20260507154605 71 189 1.7 4.3 0.00 0.00 0.00 34 1012.6
20260507154332 71 165 3.5 5.2 0.00 0.00 0.00 34 1012.6
20260507153604 71 193 2.6 5.2 0.00 0.00 0.00 33 1012.6
20260507153332 73 159 1.7 3.5 0.00 0.00 0.00 34 1012.6
20260507152604 73 138 1.7 3.5 0.00 0.00 0.00 33 1012.6
20260507152104 72 169 1.7 3.5 0.00 0.00 0.00 33 1012.6
20260507151605 72 90 1.7 3.5 0.00 0.00 0.00 35 1012.5
20260507151104 71 135 1.7 4.3 0.00 0.00 0.00 36 1012.6
20260507150604 72 243 1.7 4.3 0.00 0.00 0.00 35 1012.6
20260507150104 72 59 2.6 4.3 0.00 0.00 0.00 35 1012.7
20260507145604 72 145 1.7 3.5 0.00 0.00 0.00 34 1012.7
20260507145105 72 161 1.7 4.3 0.00 0.00 0.00 36 1012.7
20260507144604 71 231 2.6 4.3 0.00 0.00 0.00 36 1012.7
20260507144033 71 158 1.7 4.3 0.00 0.00 0.00 35 1012.7
20260507143533 72 173 0.9 3.5 0.00 0.00 0.00 34 1012.8
20260507143031 73 71 1.7 3.5 0.00 0.00 0.00 35 1012.8
20260507142523 72 109 0.9 3.5 0.00 0.00 0.00 35 1012.8
20260507142023 71 93 0.9 3.5 0.00 0.00 0.00 36 1012.9
20260507141518 70 189 1.7 4.3 0.00 0.00 0.00 36 1013.0
20260507141016 71 142 2.6 4.3 0.00 0.00 0.00 36 1013.0
20260507140736 69 235 0.9 4.3 0.00 0.00 0.00 37 1013.1
20260507140014 69 230 3.5 7.8 0.00 0.00 0.00 37 1013.1
20260507135511 70 231 2.6 9.6 0.00 0.00 0.00 38 1013.1
20260507135012 70 210 4.3 9.6 0.00 0.00 0.00 36 1013.1
20260507134738 71 154 3.5 5.2 0.00 0.00 0.00 36 1013.2
20260507134012 70 272 1.7 5.2 0.00 0.00 0.00 38 1013.2
20260507133511 69 271 3.5 6.1 0.00 0.00 0.00 39 1013.2
20260507133014 69 233 4.3 6.1 0.00 0.00 0.00 39 1013.3
20260507132511 70 0 1.7 4.3 0.00 0.00 0.00 37 1013.3
20260507132012 70 0 2.6 5.2 0.00 0.00 0.00 38 1013.4
20260507131511 68 0 1.7 6.1 0.00 0.00 0.00 37 1013.4
20260507131011 69 0 3.5 7.8 0.00 0.00 0.00 39 1013.4
20260507130511 69 0 2.6 7.8 0.00 0.00 0.00 38 1013.5
20260507130231 69 0 2.6 5.2 0.00 0.00 0.00 39 1013.6
20260507125511 69 0 3.5 5.2 0.00 0.00 0.00 37 1013.5
20260507125011 70 0 3.5 5.2 0.00 0.00 0.00 40 1013.6
20260507124511 68 0 2.6 4.3 0.00 0.00 0.00 39 1013.6
20260507124010 69 0 2.6 4.3 0.00 0.00 0.00 35 1013.6
20260507123510 69 0 1.7 5.2 0.00 0.00 0.00 35 1013.7
20260507123010 69 0 1.7 7.8 0.00 0.00 0.00 38 1013.8
20260507122510 68 0 2.6 7.8 0.00 0.00 0.00 37 1013.8
20260507122010 68 0 3.5 7.8 0.00 0.00 0.00 37 1013.7
20260507121510 68 0 3.5 7.8 0.00 0.00 0.00 40 1013.7
20260507121010 68 0 2.6 5.2 0.00 0.00 0.00 38 1013.8
20260507120510 69 0 2.6 6.1 0.00 0.00 0.00 40 1013.8
20260507120010 69 0 1.7 6.1 0.00 0.00 0.00 40 1013.9
20260507115509 69 0 2.6 6.1 0.00 0.00 0.00 38 1013.8
20260507115009 67 0 3.5 8.7 0.00 0.00 0.00 42 1013.9
20260507114509 68 0 5.2 8.7 0.00 0.00 0.00 42 1014.0
20260507114009 68 0 1.7 6.1 0.00 0.00 0.00 41 1014.0
20260507113509 66 0 2.6 5.2 0.00 0.00 0.00 43 1014.1
20260507113233 66 0 5.2 5.2 0.00 0.00 0.00 42 1014.1
20260507112735 66 0 0.9 5.2 0.00 0.00 0.00 44 1014.2
20260507112008 65 0 1.7 5.2 0.00 0.00 0.00 45 1014.2
20260507111509 66 0 1.7 5.2 0.00 0.00 0.00 42 1014.3
20260507111008 66 0 3.5 5.2 0.00 0.00 0.00 44 1014.3
20260507110508 66 0 1.7 5.2 0.00 0.00 0.00 42 1014.4
20260507110009 66 0 1.7 5.2 0.00 0.00 0.00 42 1014.5
20260507105508 66 0 3.5 5.2 0.00 0.00 0.00 42 1014.4
20260507105008 66 0 1.7 5.2 0.00 0.00 0.00 44 1014.5
20260507104508 67 0 1.7 5.2 0.00 0.00 0.00 43 1014.5
20260507104008 66 0 3.5 5.2 0.00 0.00 0.00 45 1014.5
20260507103508 65 0 2.6 7.8 0.00 0.00 0.00 47 1014.5
20260507103007 65 0 4.3 7.8 0.00 0.00 0.00 47 1014.6
20260507102730 66 0 2.6 6.1 0.00 0.00 0.00 46 1014.7
20260507102459 65 0 3.5 6.1 0.00 0.00 0.00 47 1014.7
20260507101507 64 0 1.7 6.1 0.00 0.00 0.00 47 1014.7
20260507101007 64 0 4.3 6.1 0.00 0.00 0.00 45 1014.8
20260507100507 64 0 2.6 3.5 0.00 0.00 0.00 44 1014.8
20260507100007 64 0 0.9 3.5 0.00 0.00 0.00 44 1014.7
20260507095507 65 0 0.9 5.2 0.00 0.00 0.00 44 1014.7
20260507095007 65 0 3.5 5.2 0.00 0.00 0.00 44 1014.6
20260507094727 66 0 3.5 5.2 0.00 0.00 0.00 45 1014.6
20260507094007 65 0 2.6 3.5 0.00 0.00 0.00 46 1014.6
20260507093726 65 0 1.7 4.3 0.00 0.00 0.00 45 1014.6
20260507093229 65 0 1.7 6.1 0.00 0.00 0.00 45 1014.5
20260507092507 65 0 2.6 6.1 0.00 0.00 0.00 46 1014.5
20260507092223 66 0 1.7 2.6 0.00 0.00 0.00 45 1014.6
20260507091507 65 0 1.7 4.3 0.00 0.00 0.00 45 1014.6
20260507091005 65 0 1.7 4.3 0.00 0.00 0.00 45 1014.6
20260507090507 65 0 0.0 4.3 0.00 0.00 0.00 46 1014.6
20260507090006 64 0 2.6 6.1 0.00 0.00 0.00 46 1014.6
20260507085506 64 0 2.6 6.1 0.00 0.00 0.00 46 1014.5
20260507085005 65 0 0.9 6.1 0.00 0.00 0.00 46 1014.5
20260507084504 64 0 4.3 6.1 0.00 0.00 0.00 46 1014.5
20260507084004 63 0 3.5 4.3 0.00 0.00 0.00 47 1014.5
20260507083504 63 0 1.7 4.3 0.00 0.00 0.00 48 1014.5
20260507083005 62 0 1.7 4.3 0.00 0.00 0.00 47 1014.4
20260507082503 63 0 1.7 4.3 0.00 0.00 0.00 48 1014.4
20260507082004 64 0 1.7 3.5 0.00 0.00 0.00 47 1014.5
20260507081723 63 0 1.7 3.5 0.00 0.00 0.00 48 1014.5
20260507081003 62 0 1.7 3.5 0.00 0.00 0.00 49 1014.5
20260507080503 62 0 1.7 3.5 0.00 0.00 0.00 48 1014.5
20260507080005 62 0 0.9 4.3 0.00 0.00 0.00 50 1014.5
20260507075505 61 0 1.7 4.3 0.00 0.00 0.00 50 1014.4
20260507075004 61 0 0.9 5.2 0.00 0.00 0.00 50 1014.5
20260507074727 61 0 3.5 5.2 0.00 0.00 0.00 50 1014.5
20260507074004 60 0 1.7 5.2 0.00 0.00 0.00 51 1014.4
20260507073504 60 0 3.5 5.2 0.00 0.00 0.00 50 1014.5
20260507073005 60 0 2.6 3.5 0.00 0.00 0.00 50 1014.5
20260507072504 60 0 1.7 5.2 0.00 0.00 0.00 49 1014.4
20260507072003 60 0 1.7 5.2 0.00 0.00 0.00 50 1014.4
20260507071505 60 0 2.6 5.2 0.00 0.00 0.00 49 1014.4
20260507071004 60 0 2.6 5.2 0.00 0.00 0.00 49 1014.4
20260507070731 60 0 0.0 2.6 0.00 0.00 0.00 49 1014.3
20260507070009 60 0 0.9 2.6 0.00 0.00 0.00 48 1014.3
20260507065503 60 0 0.9 2.6 0.00 0.00 0.00 49 1014.2
20260507065004 60 0 0.9 1.7 0.00 0.00 0.00 49 1014.3
20260507064504 59 0 0.0 0.0 0.00 0.00 0.00 49 1014.2
20260507064002 58 0 0.0 0.0 0.00 0.00 0.00 50 1014.2
20260507063502 58 0 0.0 0.0 0.00 0.00 0.00 49 1014.1
20260507063004 57 0 0.0 0.0 0.00 0.00 0.00 49 1014.1
20260507062731 57 0 0.0 1.7 0.00 0.00 0.00 50 1014.1
20260507062222 56 0 0.0 3.5 0.00 0.00 0.00 50 1014.1
20260507061502 56 0 1.7 3.5 0.00 0.00 0.00 50 1014.0
20260507061002 55 0 0.0 4.3 0.00 0.00 0.00 50 1014.0
20260507060502 55 0 2.6 4.3 0.00 0.00 0.00 51 1014.0
20260507060002 55 0 1.7 4.3 0.00 0.00 0.00 51 1013.9
20260507055502 54 0 2.6 4.3 0.00 0.00 0.00 51 1013.8
20260507055002 54 0 1.7 2.6 0.00 0.00 0.00 52 1013.7
20260507054501 54 0 0.0 2.6 0.00 0.01 0.00 52 1013.8
20260507054001 53 0 0.9 2.6 0.00 0.01 0.00 53 1013.7
20260507053724 53 0 1.7 6.1 0.00 0.01 0.00 53 1013.7
20260507053002 53 0 4.3 6.1 0.00 0.01 0.00 54 1013.6
20260507052719 52 0 0.0 3.5 0.00 0.02 0.00 55 1013.6
20260507052001 52 0 0.9 3.5 0.00 0.06 0.00 55 1013.5
20260507051718 52 0 1.7 3.5 0.00 0.10 0.00 56 1013.5
20260507051001 52 0 1.7 2.6 0.00 0.15 0.00 56 1013.4
20260507050501 52 69 1.7 2.6 0.00 0.18 0.00 57 1013.4
20260507045959 52 80 0.0 0.0 0.00 0.19 0.00 57 1013.3
20260507045500 52 80 0.0 0.0 0.00 0.19 0.00 57 1013.3
20260507045232 52 80 0.0 0.0 0.00 0.20 0.00 57 1013.2
20260507044500 52 83 0.0 0.0 0.00 0.20 0.00 57 1013.2
20260507044000 52 80 0.0 0.0 0.00 0.20 0.00 57 1013.2
20260507043727 52 78 0.0 1.7 0.00 0.20 0.00 57 1013.1
20260507043219 51 62 0.9 1.7 0.00 0.21 0.00 57 1013.0
20260507042500 52 62 0.0 1.7 0.00 0.22 0.00 57 1013.0
20260507041959 52 66 0.0 0.0 0.00 0.23 0.00 57 1012.9
20260507041459 52 330 0.0 0.0 0.00 0.23 0.00 57 1012.8
20260507040959 52 331 0.0 0.0 0.00 0.24 0.00 57 1012.9
20260507040459 52 331 0.0 0.0 0.00 0.24 0.00 57 1012.9
20260507040000 52 331 0.0 0.9 0.00 0.24 0.00 57 1012.8
20260507035459 53 331 0.0 0.9 0.00 0.24 0.00 57 1012.8
20260507034959 53 331 0.0 1.7 0.00 0.25 0.00 57 1012.7
20260507034719 53 331 0.9 1.7 0.00 0.25 0.00 57 1012.6
20260507033959 53 0 0.0 2.6 0.00 0.26 0.00 57 1012.6
20260507033458 53 331 0.0 2.6 0.00 0.27 0.00 57 1012.7
20260507032957 53 0 0.9 2.6 0.00 0.27 0.00 57 1012.5
20260507032457 53 0 0.9 2.6 0.00 0.28 0.00 57 1012.5
20260507032220 53 0 1.7 2.6 0.00 0.28 0.00 57 1012.5
20260507031457 53 0 0.9 3.5 0.00 0.28 0.00 57 1012.6
20260507030956 53 0 0.9 3.5 0.00 0.28 0.00 57 1012.5
20260507030457 53 0 1.7 4.3 0.00 0.28 0.00 57 1012.5
20260507025956 53 0 1.7 5.2 0.00 0.28 0.00 57 1012.5
20260507025457 53 0 2.6 5.2 0.00 0.28 0.00 57 1012.4
20260507024955 53 0 3.5 4.3 0.00 0.28 0.00 57 1012.4
20260507024456 53 0 2.6 4.3 0.00 0.28 0.00 57 1012.5
20260507023956 53 0 1.7 6.1 0.00 0.28 0.00 57 1012.5
20260507023456 54 0 3.5 7.8 0.00 0.28 0.00 56 1012.4
20260507022955 54 0 6.1 7.8 0.00 0.28 0.00 56 1012.5
20260507022456 54 0 4.3 5.2 0.00 0.28 0.00 56 1012.4
20260507021955 54 0 2.6 8.7 0.00 0.28 0.00 56 1012.5
20260507021455 54 0 4.3 8.7 0.00 0.28 0.00 56 1012.5
20260507020955 54 0 5.2 7.8 0.00 0.28 0.00 56 1012.5
20260507020456 54 0 4.3 7.8 0.00 0.28 0.00 56 1012.5
20260507015955 54 0 5.2 7.8 0.00 0.28 0.00 56 1012.5
20260507015719 54 0 3.5 5.2 0.00 0.28 0.00 56 1012.5
20260507015223 54 0 3.5 5.2 0.00 0.28 0.00 56 1012.5
20260507014455 54 0 2.6 4.3 0.00 0.28 0.00 56 1012.4
20260507014219 54 0 2.6 4.3 0.00 0.28 0.00 56 1012.4